Cotopaxi International Airport
SELT : now visible

Airfield :











YOU CAN JOIN US ON...

 
LOGIN :

Register | Disclaimer

   EN    FR    IT 

 









Legend :    VFR   Marginal VFR   IFR   Intensive IFR   Very Intensive IFR
Visi :
Ceiling :
>= 8 km
>= 3000ft
5 to 8 km
1000 to 3000 ft
1500m to 5 km
500 to 1000 ft
800 to 1500m
200 to 500 ft
< 800m
< 200 ft
Symbols :   Thunderstorms  Fog  Heavy snow  Heavy precipitations  Wind > 20 kt






- Airport Elevation : 9205 ft
- IATA code : LTX


SELT - Cotopaxi International

CURRENT METAR :
  • 172300Z 17012KT 9999 FEW030 12/07 Q1028

EXPIRED METARs :
  • 172200Z 17016KT 9999 SCT030 13/07 Q1027
  • 172100Z 17015KT 9999 SCT030 SCT100 14/08 Q1027

TAF SELT
Valid from the 18 at 00:00 until the 19 at 00:00 UTC


172220Z 1800/1824 19010KT 9999 BKN030 BKN100
BECMG 1805/1807 VRB03KT SCT010 BKN026
BECMG 1813/1815 18015KT SCT030 SCT100
BECMG 1818/1820 BKN030 BKN100 TX16/1819Z TN08/1811Z
SEGU FIR / South America



MET'MAP, your aeronautical weather chart ! - Copyright ORBIFLY December 2007 - Disclaimer

ORBIFLY MET'MAP TEAM :

Programming & Development : Alexandra Zaïnal
Concept & original design : Baudouin d'Aumeries
Assistance for programming : Marc-Olivier Méhu
Technical & hardware support : Manuel Goepfert

Contact : metmap@orbifly.com




SOURCES & CREDITS :

   NOAA       Earth
Advisory